Regional Weather Roundup
Issued by NWS

Home | Current Version | Previous Version | Text Only | Print | Product List | Glossary Off
Versions: 1 2 3 4 5 6 7 8 9 10 11 12 13 14 15 16 17 18 19 20 21 22 23 24 25 26 27 28 29 30 31 32 33 34 35 36 37 38 39 40 41 42 43 44 45 46 47 48 49 50

000
ASUS43 KIND 292209
RWRIN

WEATHER ROUNDUP FOR INDIANA
NATIONAL WEATHER SERVICE INDIANAPOLIS IN
600 PM EDT THU SEP 29 2016

NOTE: "FAIR" INDICATES FEW OR NO CLOUDS BELOW 12,000 FEET WITH NO
SIGNIFICANT WEATHER AND/OR OBSTRUCTIONS TO VISIBILITY.

* - STATION DOES NOT REPORT WEATHER SUCH AS PRECIPITATION OR FOG.

+ - STATION NOT QUALITY CONTROLLED BY THE NATIONAL WEATHER SERVICE.
    USE DATA WITH CAUTION...ESPECIALLY DEWPOINT AND RELATIVE
    HUMIDITY OBSERVATIONS.

INZ001>003-010>013-019-020-292300-
NORTHWEST INDIANA

CITY           SKY/WX    TMP DP  RH WIND       PRES   REMARKS
GARY /AIRPORT/ PTSUNNY   66  59  77 NE17G31   30.17R
KNOX *+        SUNNY     70  32  24 NE14      30.12S
LA PORTE +     MOSUNNY   70  56  62 NE15G24   30.16R
MICHIGAN CITY+ PTSUNNY   64  59  82 CALM      30.17R
MONTICELLO +   MOSUNNY   68  47  46 E7        30.10S
RENSSELAER +   CLOUDY    63  61  94 N6        30.13R
VALPARAISO     PTSUNNY   68  59  73 NE13G21   30.15R

$$

LMZ046-743>745-292300-
SOUTHERN LAKE MICHIGAN

STATION/POSITION TIME  TEMP    WIND        PRES    WAVE
                       AIR SEA DIR/SP/G            HT
                 (UTC) (F)     (DEG/KT/KT) (MB)    (FT)
BURNS HARBOR     2144   65      40/ 25/ 27 1021.0R
MICHIGAN CITY    2140   63      10/ 26/ 30   N/A
5NW MICH CITY    2200   64 65   40/ 23/ 29   N/A     9

$$

INZ004-005-014>016-021>024-292300-
NORTH CENTRAL INDIANA

CITY           SKY/WX    TMP DP  RH WIND       PRES   REMARKS
ELKHART        CLOUDY   N/A N/A N/A NE12      30.15R
GOSHEN         CLOUDY    66  56  70 NE10      30.15R
LOGANSPORT +   MOSUNNY   68  48  49 NE7G16    30.12R
PERU/GRISSOM   SUNNY     68  52  56 NE8       30.10R
ROCHESTER +    MOSUNNY   70  52  52 NE6       30.13R
SOUTH BEND     CLOUDY    65  57  75 NE10G20   30.16R
WARSAW +       CLOUDY    66  63  88 NE10      30.14R

$$

INZ006>009-017-018-025>027-292300-
NORTHEAST INDIANA

CITY           SKY/WX    TMP DP  RH WIND       PRES   REMARKS
ANGOLA *+        N/A     64  55  72 NE14      30.15S
AUBURN +       CLOUDY    64  54  68 NE10      30.15R
FORT WAYNE     CLOUDY    65  53  65 NE14      30.13R
HUNTINGTON +   CLOUDY    66  52  60 NE8       30.12R
KENDALLVILLE + CLOUDY    65  56  71 NE9       30.15R

$$

INZ028-029-035-036-043>045-051>053-292300-
WEST CENTRAL INDIANA

CITY           SKY/WX    TMP DP  RH WIND       PRES   REMARKS
CRAWFORDSVL +  MOSUNNY   64  48  57 CALM      30.10S
GREENCASTLE +  PTSUNNY   63  54  72 CALM      30.10S
LAFAYETTE      PTSUNNY   66  53  63 E9        30.10R
TERRE HAUTE    PTSUNNY   68  50  52 N7        30.10R

$$

INZ030>032-037>040-046>048-054>057-064-065-292300-
CENTRAL INDIANA

CITY           SKY/WX    TMP DP  RH WIND       PRES   REMARKS
COLUMBUS       MOSUNNY   64  50  59 E7        30.08R
FISHERS *+     MOSUNNY   66  55  68 CALM      30.09S
FRANKFORT +    PTSUNNY   71  51  48 E7        30.12S
GREENWOOD *+   MOSUNNY   68  52  56 NE3       30.09S
INDIANAPOLIS   PTSUNNY   65  50  58 NE8       30.08S
-EAGLE CREEK   MOSUNNY   68  50  52 CALM      30.08S
KOKOMO *+      SUNNY     68  52  56 NE9       30.11S
MARION +       MOSUNNY   69  51  51 NE10      30.11S
MT COMFORT *+  MOSUNNY   66  52  59 N10       30.09S
SHELBYVILLE    PTSUNNY   68  49  50 E5        30.07S
ZIONSVILLE +   MOSUNNY   67  50  53 NE9       30.10F

$$

INZ033-034-041-042-049-050-058-059-292300-
EAST CENTRAL INDIANA

CITY           SKY/WX    TMP DP  RH WIND       PRES   REMARKS
MUNCIE         PTSUNNY   67  52  58 E8        30.09R

$$

INZ060-061-067>069-081>083-085>088-292300-
SOUTHWEST INDIANA

CITY           SKY/WX    TMP DP  RH WIND       PRES   REMARKS
EVANSVILLE     MOSUNNY   67  51  56 N6        30.09S
HUNTINGBURG *+   N/A     66  52  59 N6        30.09S
WASHINGTON +   PTSUNNY   67  52  59 MISG      30.08S

$$

INZ062-063-066-070>080-084-089>092-292300-
SOUTH CENTRAL AND SOUTHEAST INDIANA

CITY           SKY/WX    TMP DP  RH WIND       PRES   REMARKS
BEDFORD +      LGT RAIN N/A N/A N/A N5        30.08
BLOOMINGTON    CLOUDY    65  49  56 NE7       30.09R
MADISON *+     MOSUNNY   63  50  63 CALM      30.09S
NORTH VERNON + SUNNY     66  54  63 E5        30.08S
SEYMOUR +      PTSUNNY   66  50  55 NE7       30.08R

$$




USA.gov is the U.S. government's official web portal to all federal, state and local government web resources and services.